Regional Weather Roundup
Issued by NWS

Home | Current Version | Previous Version | Graphics & Text | Print | Product List | Glossary On
Versions: 1 2 3 4 5 6 7 8 9 10 11 12 13 14 15 16 17 18 19 20 21 22 23 24 25 26 27 28 29 30 31 32 33 34 35 36 37 38 39 40 41 42 43 44 45 46 47 48 49 50
000
ASUS43 KMKX 230800
RWRWI

WISCONSIN REGIONAL WEATHER ROUNDUP
NATIONAL WEATHER SERVICE MILWAUKEE/SULLIVAN WI
300 AM CDT WED AUG 23 2017

NOTE: "FAIR" INDICATES FEW OR NO CLOUDS BELOW 12,000 FEET WITH NO
SIGNIFICANT WEATHER AND/OR OBSTRUCTIONS TO VISIBILITY.

WIZ001-002-006>008-014>016-023>028-230900-
NORTHWEST WISCONSIN

CITY           SKY/WX    TMP DP  RH WIND       PRES   REMARKS
SUPERIOR ARPT    N/A     53  50  92 NW3       30.01S
ASHLAND        MOCLDY    53  52  96 SW6       30.00R
HAYWARD        PTCLDY    48  46  93 CALM      30.02R
SIREN          CLEAR     52  49  89 W3        30.05R
CUMBERLAND     CLEAR     54  46  76 NW7       30.04R
RICE LAKE      CLEAR     54  49  85 CALM      30.05R
CHETEK         CLEAR     55  50  84 N5        30.03S
LADYSMITH      CLEAR     55  51  85 W7        30.03R
EAU CLAIRE     NOT AVBL
MENOMONIE      CLEAR     56  50  79 W6        30.04S
NEW RICHMOND   CLEAR     52  47  81 W3        30.06R
OSCEOLA        CLEAR     51  51 100 CALM      30.09R
$$

WIZ003>005-009-010-017-018-230900-
NORTH CENTRAL WISCONSIN

CITY           SKY/WX    TMP DP  RH WIND       PRES   REMARKS
MANITOWISH WTR CLOUDY    53  53 100 NW5       29.97S
ARBOR VITAE    MOCLDY    57  55  93 NW7       29.98R
WOODRUFF       MOCLDY    57  55  93 NW7       29.98R
RHINELANDER    PTCLDY    52  51  97 W6        29.99R
EAGLE RIVER    PTCLDY    54  53  96 NW7       29.96R
LAND O LAKES   CLOUDY    55  52  89 NW5       29.97R
PHILLIPS       CLEAR     52  52  99 CALM      30.00R
TOMAHAWK         N/A     49  48  95 W3        29.99R
MEDFORD        CLEAR     51  48  91 W5        30.01R
MERRILL        NOT AVBL
$$

WIZ029-030-035-036-043>047-230900-
CENTRAL WISCONSIN

CITY           SKY/WX    TMP DP  RH WIND       PRES   REMARKS
WAUSAU         CLEAR     54  50  86 NW7       29.98R
MOSINEE        CLEAR     54  50  87 NW8       30.00S
MARSHFIELD     CLEAR     53  47  79 W6        30.01R
STEVENS POINT  CLEAR     54  49  85 CALM      30.01R
WAUPACA        CLEAR     59  50  71 W6        29.98S
WAUTOMA        CLEAR     53  49  86 W6        30.01R
WISC RAPIDS    CLEAR     54  49  83 NW8       30.02R
CAMP DOUGLAS   CLEAR     50  47  89 W7        30.02R
$$

WIZ011>013-019>022-031-037>040-048>050-230900-
NORTHEAST WISCONSIN

CITY           SKY/WX    TMP DP  RH WIND       PRES   REMARKS
ANTIGO         CLEAR     51  50  97 W7        29.98R
SHAWANO        CLEAR     59  51  76 W6        29.95S
OCONTO         CLEAR     56  51  84 W8        29.93R
STURGEON BAY   CLEAR     60  54  80 W9        29.94R
GREEN BAY      CLEAR     55  53  93 W7        29.96R
MANITOWOC      NOT AVBL
APPLETON       CLEAR     54  46  76 W8        29.96R
CLINTONVILLE   CLEAR     55  48  76 W6        29.97R
OSHKOSH        CLEAR     58  49  72 W7        29.97R
$$

WIZ032>034-041-042-053>061-230900-
SOUTHWEST WISCONSIN

CITY           SKY/WX    TMP DP  RH WIND       PRES   REMARKS
LA CROSSE      CLEAR     62  51  67 NW8       30.04R
SPARTA         CLEAR     46  46  98 CALM      30.05R
VIROQUA        CLEAR     54  51  89 W6        30.05S
BOSCOBEL       CLEAR     54  50  86 SW6       30.06R
PRAIRIE DU CHI CLEAR     55  49  81 CALM      30.06S
PLATTEVILLE    CLEAR     53  53  99 W6        30.07S
$$

WIZ056-057-062-063-064-067-068-230900-
SOUTH CENTRAL WISCONSIN

CITY           SKY/WX    TMP DP  RH WIND       PRES   REMARKS
REEDSBURG      CLEAR     52  52 100 CALM      30.03R
BARABOO/DELLS  CLEAR     56  48  75 CALM      30.02S
LONE ROCK      NOT AVBL
MINERAL POINT  CLEAR     55  52  88 W5        30.06R
MADISON        CLEAR     58  51  78 VRB3      30.02R
MIDDLETON      CLEAR     56  52  86 W5        30.03S
WATERTOWN      CLEAR     55  53  92 W3        30.01R
MONROE         CLEAR     55  50  82 W12       30.05S
JANESVILLE     CLEAR     55  52  88 W3        30.03S
$$

WIZ051-052-058>065-066-070>072-230900-
SOUTHEAST WISCONSIN

CITY           SKY/WX    TMP DP  RH WIND       PRES   REMARKS
MILWAUKEE      CLEAR     62  51  67 W6        29.99S
WAUKESHA       CLEAR     55  48  76 W8        30.01S
MILWAUKEE/TIMM CLEAR     57  46  67 W7        30.00S
RACINE         CLEAR     59  52  77 W7        30.01S
KENOSHA        CLEAR     55  51  86 W6        30.01R
FOND DU LAC    CLEAR     58  49  72 W6        29.99R
SHEBOYGAN      CLEAR     57  52  83 W6        29.96S
WEST BEND      CLEAR     57  50  77 W7        29.99R
JUNEAU         CLEAR     53  49  89 SW3       30.01S
$$

LSZ147-162-230900-
LAKE SUPERIOR

STATION/POSITION TIME  TEMP    WIND        PRES    WAVE
                       AIR SEA DIR/SP/G            HT/PER
                 (UTC) (F)     (DEG/KT/KT) (MB)    (FT/S)
W MID LAKE BUOY  0650   60 60  320/ 14/ 17 1013.1R   3/ 4
DEVILS ISLAND    0700   61     330/ 16/ 18 1014.6S
SAXON HARBOR     0740   63     310/ 12/ 16 1014.6R
$$

LMZ867-665-643>646-230900-
LAKE MICHIGAN

STATION/POSITION TIME  TEMP    WIND        PRES    WAVE
                       AIR SEA DIR/SP/G            HT/PER
                 (UTC) (F)     (DEG/KT/KT) (MB)    (FT/S)
S GREEN BAY BUOY 0730   63 70  280/ 16/ 19 1013.3R
N MID LAKE BUOY  0650   63 67  300/ 19/ 23 1011.3R   3/ 4
NORTHPORT PIER   0740   62     310/ 16/ 20 1012.2R
KEWAUNEE LAKESHO 0730   59     270/  3/  5 1012.7R
SHEBOYGAN LAKESH 0700   61     270/  9/ 10 1014.0S
PORT WASHINGTON  0740   61     280/  6/  9 1015.6S
ATWATER BUOY     0609   65 67  260/ 10/ 12 1015.4
MILWAUKEE LAKESH 0730   64     280/  9/ 11   N/A
S MID LAKE BUOY  0650   69 71  330/ 16/ 19 1014.5S   4/ 5
KENOSHA   LAKESH 0700   62     280/ 10/ 14 1015.6
$$

TC  - TEMPERATURE IN CELSIUS
VSB - VISIBILITY IN STATUTE MILES
WCI - WIND CHILL INDEX
HX  - HEAT INDEX





USA.gov is the U.S. government's official web portal to all federal, state and local government web resources and services.